Location: Fort Worth, Tx
(32.7431°N, 97.3695°W)
Time: 16:45:00
(UTC-04:00)

A-11 Canister half - Pass Details

Date: 03 March 2024
Orbit: 1525 x 1683 km, 47.3° (Epoch: 21 April)

Event Time Altitude Azimuth Distance (km) Brightness Sun altitude
Rises 20:39:24 0° 252° (WSW) 4,831 13.0 -15.6°
Reaches altitude 10° 20:42:41 10° 257° (WSW) 3,824 12.3 -16.3°
Maximum altitude 20:52:06 53° 332° (NNW) 1,862 9.6 -18.3°
Enters shadow 21:00:55 11° 48° (NE) 3,611 10.6 -20.1°
